TIME,DELAY(SENSOR),PRES,OXYGEN,RAWTEMP,T(OPTODE),TCPHASE,FLUOR,BETA(BETA700),BETA(BETA412),BETA(BETA440),CDOM,C(CSC),ED(ED412.40),ED(ED444.00),ED(ED489.70),ED(ED554.30),LU(LU411.80),LU(LU443.40),LU(LU489.60),LU(LU554.10),COMP,TILTX,TILTY,CHECK
1382500499,5810,811.6699829101562000,47.2201881408691400,656.4998779296875000,4.7431340217590330,53.8920402526855500,52,98,87,78,77,15262,2147750902,2147422390,2148011190,2147874578,2147636022,2147052022,2148260077,2147197302,122,4,13,12919
1382504095,5804,875.6199951171875000,54.0288009643554700,661.8112792968750000,4.5683212280273440,53.0147895812988300,52,98,90,77,78,15266,2147754962,2147424448,2148014253,2147872740,2147636790,2147055981,2148261888,2147197412,550,4,13,44737
1382507695,5807,880.2500000000000000,54.9215202331543000,663.0291748046875000,4.5281958580017090,52.9134292602539060,52,101,86,78,78,15264,2147752932,2147423908,2148012160,2147874843,2147635693,2147061046,2148266660,2147195730,226,4,13,20988
1382511295,5807,910.9400024414062000,56.7287292480468750,667.3206787109375000,4.3866648674011230,52.7330017089843750,52,96,85,79,79,15266,2147754870,2147426450,2148014756,2147874212,2147638619,2147057444,2148263049,2147195072,3564,3,13,54151
1382514895,5807,918.3200073242188000,56.4853515625000000,666.9373168945312000,4.3993167877197270,52.7583885192871100,52,96,87,77,78,15267,2147754020,2147421632,2148011794,2147873590,2147637778,2147056850,2148266194,2147200923,3286,4,13,31263
1382518495,5759,924.4899902343750000,56.1748809814453100,666.6232299804688000,4.4096808433532715,52.7952919006347660,51,96,85,80,79,15263,2147756964,2147423021,2148010258,2147873261,2147635337,2147058989,2148263680,2147195264,7,4,13,5001
1382522095,5810,943.6900024414062000,57.0719184875488300,670.2722778320312000,4.2892041206359860,52.7223205566406250,52,96,86,78,78,15262,2147754121,2147424832,2148012361,2147874057,2147637165,2147053531,2148267812,2147197723,3533,3,13,16570
1382525695,5808,941.0300292968750000,57.2038192749023440,670.4260864257812000,4.2841210365295410,52.7069091796875000,52,98,82,80,77,15261,2147757586,2147424841,2148012763,2147875017,2147638710,2147055131,2148265499,2147194971,383,4,13,10622
1382529295,5809,949.9299926757812000,57.5101890563964840,670.9160156250000000,4.2679328918457030,52.6773185729980500,53,96,84,78,79,15263,2147753810,2147423762,2148013924,2147874971,2147636507,2147052461,2148268653,2147198473,542,4,13,27445
1382532895,5812,979.7100219726562000,58.1535415649414060,674.0579223632812000,4.1640591621398930,52.6315498352050800,52,96,86,78,78,15262,2147757714,2147425152,2148011446,2147877888,2147638765,2147053494,2148264758,2147197549,3200,4,13,48266
1382536495,5807,977.5300292968750000,57.8347511291503900,673.3864746093750000,4.1862621307373050,52.6643486022949200,53,97,89,78,79,15262,2147757842,2147422400,2148012187,2147873508,2147641334,2147052489,2148268955,2147199021,503,4,13,6120
1382540095,5810,989.2999877929688000,58.1281890869140600,673.1367187500000000,4.1945228576660160,52.6227302551269500,52,97,84,77,78,15264,2147752621,2147424365,2148011227,2147876388,2147640658,2147057088,2148260150,2147198692,3226,3,13,8385
1382543695,5810,993.8300170898438000,57.6172294616699200,671.5319824218750000,4.2475762367248535,52.6678886413574200,52,96,89,78,78,15263,2147752466,2147423012,2148012416,2147877083,2147638948,2147059373,2148266093,2147199158,3477,4,13,37280
1382547295,5811,993.2999877929688000,57.0158805847168000,670.9929199218750000,4.2653942108154300,52.7424888610839840,53,98,83,79,78,15263,2147752237,2147423780,2148015926,2147872521,2147641005,2147052169,2148264704,2147197229,26,4,13,26207
1382550895,5809,985.1799926757812000,56.8563499450683600,671.5745849609375000,4.2461681365966800,52.7703399658203100,52,96,85,78,78,15262,2147757467,2147421056,2148013622,2147873307,2147640621,2147047177,2148257371,2147199762,1,4,13,2429
1382554495,5811,986.4500122070312000,56.9169998168945300,672.2053222656250000,4.2253232002258300,52.7686195373535160,53,96,86,77,79,15263,2147758061,2147423021,2148015131,2147874038,2147637540,2147049792,2148265737,2147195355,3547,4,13,20118
1382558095,5809,987.9199829101562000,57.2960090637207000,672.0944213867188000,4.2289891242980960,52.7212982177734400,52,97,86,77,78,15264,2147755145,2147422354,2148012900,2147873161,2147639762,2147056557,2148267254,2147198244,26,4,13,4489
1382561695,5810,987.2500000000000000,57.0638198852539060,672.2894897460938000,4.2225379943847660,52.7491111755371100,52,98,84,78,80,15259,2147756004,2147422665,2148012032,2147873673,2147640576,2147058075,2148263213,2147202194,40,4,13,2233
1382565295,5808,992.0300292968750000,55.8235206604003900,672.7619018554688000,4.2069191932678220,52.9232292175293000,52,96,86,78,78,15262,2147758848,2147424640,2148009956,2147874742,2147638710,2147049115,2148267556,2147198930,253,4,13,39825
1382568895,5810,994.1099853515625000,56.9262199401855500,672.3583984375000000,4.2202610969543460,52.7713394165039060,52,100,83,78,79,15260,2147754806,2147424265,2148013714,2147874331,2147638518,2147054436,2148264347,2147202066,57,4,13,4338
1382572495,5813,990.7600097656250000,57.2272987365722660,672.8391113281250000,4.2043671607971190,52.7395095825195300,52,96,85,78,78,15261,2147754907,2147423936,2148010258,2147874624,2147642779,2147053888,2148262491,2147197522,205,4,13,662
1382576095,5811,989.8699951171875000,57.2295989990234400,673.0073852539062000,4.1988010406494140,52.7426795959472660,51,97,89,79,78,15257,2147755584,2147423515,2148012644,2147873517,2147641051,2147057078,2148263259,2147194587,98,4,13,33709
1382579695,5809,989.2199707031250000,57.4023208618164060,673.5241699218750000,4.1817069053649900,52.7248382568359400,52,96,84,78,78,15257,2147757165,2147423158,2148013467,2147877138,2147644205,2147050304,2148268233,2147197686,3406,4,13,43111
1382583295,5811,986.8099975585938000,56.9332389831543000,673.0584716796875000,4.1971111297607420,52.7771492004394500,53,104,86,78,78,15261,2147755785,2147421339,2148012982,2147874605,2147640905,2147054582,2148267995,2147198802,3459,4,13,42036
1382586895,5809,990.9299926757812000,56.8263587951660160,673.6243286132812000,4.1783981323242190,52.7986106872558600,51,96,89,77,77,15257,2147755373,2147425298,2148013787,2147875062,2147638939,2147055890,2148267538,2147198546,180,4,13,18919
1382590495,5809,1000.6599731445312000,57.2699089050293000,671.5925292968750000,4.2455768585205080,52.7157211303710940,53,97,84,78,78,15259,2147755282,2147424694,2148015177,2147874304,2147641197,2147055204,2148263808,2147196169,374,4,13,56359
1382594095,5810,989.2000122070312000,57.0055999755859400,671.3529052734375000,4.2534961700439450,52.7454605102539060,52,97,88,78,79,15258,2147754614,2147424484,2148012717,2147872100,2147639012,2147049901,2148267108,2147197476,607,4,13,9452
1382597695,5810,992.0000000000000000,57.5544281005859400,673.1190185546875000,4.1951079368591310,52.7023811340332000,51,96,84,79,78,15261,2147754633,2147425188,2148013558,2147876580,2147639268,2147051620,2148264758,2147197065,3355,4,13,3478
1382601295,5808,988.8699951171875000,57.6104011535644500,673.5278930664062000,4.1815872192382810,52.6994590759277340,52,95,86,78,78,15258,2147753627,2147426404,2148013504,2147872457,2147641325,2147054573,2148269769,2147197558,122,4,13,31213
1382604895,5805,989.2899780273438000,57.2878799438476560,674.0247802734375000,4.1651501655578610,52.7454986572265600,52,95,81,80,78,15260,2147754322,2147422774,2148015954,2147874358,2147641115,2147051894,2148267181,2147198555,3253,4,13,61256
1382608495,5810,991.1400146484375000,57.8840293884277340,673.8632202148438000,4.1704978942871090,52.6651496887207000,52,96,86,79,78,15259,2147755062,2147424630,2148013028,2147876187,2147638848,2147052379,2148259958,2147199296,3079,4,13,56037
1382612095,5808,989.0999755859375000,57.2095184326171900,674.2163085937500000,4.1588149070739750,52.7610015869140600,52,99,86,78,78,15254,2147750829,2147424621,2148011794,2147875117,2147641408,2147050761,2148262445,2147201526,6,4,13,11865
1382615695,5806,994.5599975585938000,57.9734306335449200,673.5977172851562000,4.1792769432067870,52.6546592712402340,51,96,86,78,79,15256,2147754596,2147420854,2148012589,2147874633,2147640923,2147057380,2148261531,2147198720,3387,4,13,45012
1382619295,5811,994.2700195312500000,58.0617713928222660,673.6818237304688000,4.1764979362487790,52.6428604125976560,52,96,85,78,79,15259,2147757641,2147422208,2148010724,2147876233,2147640256,2147055744,2148266404,2147198637,3579,3,13,51856
1382622895,5808,982.7700195312500000,57.5466918945312500,674.4260864257812000,4.1518750190734860,52.7169303894043000,52,96,85,78,78,15257,2147757376,2147424740,2148013659,2147871963,2147639442,2147056603,2148268096,2147197997,30,4,13,44506
1382626495,5809,988.3599853515625000,58.3392181396484400,674.4857788085938000,4.1498999595642090,52.6163482666015600,51,97,83,78,79,15254,2147756763,2147420845,2148009197,2147875410,2147640045,2147053312,2148265353,2147200109,318,4,13,64437
1382630095,5811,992.3099975585938000,57.9491004943847660,673.9016723632812000,4.1692237854003910,52.6621284484863300,51,97,85,79,77,15253,2147755958,2147421814,2148008923,2147877056,2147642121,2147050633,2148264978,2147199872,136,4,13,27021
1382633695,5807,994.4699707031250000,57.3236007690429700,673.9340209960938000,4.1681561470031740,52.7431793212890600,51,96,84,78,78,15255,2147756004,2147426240,2148011136,2147874605,2147640201,2147053997,2148265709,2147197293,3555,4,13,50154
1382637295,5805,997.5100097656250000,57.5304107666015600,672.7263183593750000,4.2080941200256350,52.6990585327148440,52,97,84,79,78,15257,2147755666,2147423451,2148011922,2147870363,2147641883,2147053165,2148261110,2147196909,285,4,13,46935
1382640895,5810,986.5700073242188000,57.3852195739746100,674.3740844726562000,4.1535930633544920,52.7395591735839840,52,97,84,78,78,15255,2147760722,2147421961,2148013284,2147875373,2147637952,2147053302,2148265453,2147199424,441,4,13,5478
1382644556,5810,991.9099731445312000,58.0001411437988300,674.7891845703125000,4.1398620605468750,52.6643409729003900,52,97,80,78,78,15263,2147755602,2147425691,2148013878,2147873481,2147639451,2147051227,2148263744,2147198573,3594,4,13,63508
